Location: Budapest
(47.5000°N, 19.0830°E)
Time: 13:21:21
(UTC+01:00)

ISS - Visible Passes

Search period start: 20 January 2022 00:00
Search period end: 30 January 2022 00:00
Orbit: 413 x 422 km, 51.6° (Epoch: 20 January)

Date Brightness Start Highest point End Pass type
(mag) Time Alt. Az. Time Alt. Az. Time Alt. Az.
20 Jan -3.7 18:15:24 10° SW 18:18:40 58° SSE 18:18:51 57° SE visible
21 Jan -2.9 17:27:38 10° SW 17:30:46 38° SE 17:32:57 17° E visible
21 Jan -1.6 19:04:11 10° W 19:05:54 26° W 19:05:54 26° W visible
22 Jan -3.7 18:16:06 10° WSW 18:19:26 71° NNW 18:19:56 57° NE visible
23 Jan -3.8 17:28:04 10° WSW 17:31:25 84° SSE 17:33:56 16° ENE visible
23 Jan -1.5 19:05:13 10° WNW 19:06:52 24° WNW 19:06:52 24° WNW visible
24 Jan -3.2 18:17:04 10° W 18:20:16 45° NNW 18:20:50 41° NNE visible
25 Jan -3.4 17:28:54 10° W 17:32:11 55° NNW 17:34:47 15° ENE visible
25 Jan -1.5 19:06:09 10° WNW 19:07:43 23° NW 19:07:43 23° NW visible
26 Jan -3.0 18:18:01 10° WNW 18:21:11 38° N 18:21:39 36° NNE visible
27 Jan -3.0 17:29:51 10° W 17:33:03 40° N 17:35:35 14° ENE visible
27 Jan -1.6 19:06:57 10° WNW 19:08:30 24° NW 19:08:30 24° NW visible
28 Jan -3.2 18:18:51 10° WNW 18:22:04 42° N 18:22:27 40° NNE visible
29 Jan -3.0 17:30:43 10° WNW 17:33:53 39° N 17:36:26 14° ENE visible
29 Jan -1.9 19:07:35 10° WNW 19:09:22 29° WNW 19:09:22 29° WNW visible
